Overview Statistics Trail Chart Weather Telemetry Raw packets
 

This is the latest recevied weather packets stored in our database for station/object Ostrach. If no packets are shown the sender has not sent any weather packets the latest 10 day(s).

<< 16 17 18 19 20 >>
Time Temp. Humidity Pressure Rain* Wind** Luminosity Snow
1787907730 20° C 84% 1009.3 hPa 0 mm - - -
1787905930 22.78° C 75% 1005.5 hPa 0 mm - - -
1787904130 23.33° C 74% 1005.6 hPa 0 mm - - -
1787902333 23.33° C 74% 1005.9 hPa 0 mm - - -
1787900530 22.22° C 78% 1006.9 hPa 0 mm - - -
1787898729 21.11° C 82% 1007 hPa 0 mm - - -
1787896930 20° C 85% 1006.7 hPa 0 mm - - -
1787895130 19.44° C 88% 1007.1 hPa 0 mm - - -
1787893329 19.44° C 87% 1006.9 hPa 0 mm - - -
1787891530 18.89° C 88% 1006.2 hPa 0 mm - - -
1787889733 18.89° C 88% 1006.6 hPa 0 mm - - -
1787887929 19.44° C 87% 1006.5 hPa 0 mm - - -
1787886129 19.44° C 88% 1006.8 hPa 0 mm - - -
1787884330 19.44° C 88% 1007 hPa 0 mm - - -
1787882530 19.44° C 88% 1006.9 hPa 0 mm - - -
1787880729 19.44° C 90% 1006.9 hPa 0 mm - - -
1787878929 19.44° C 91% 1006.7 hPa 0 mm - - -
1787877131 18.89° C 90% 1006.7 hPa 0 mm - - -
1787875331 19.44° C 90% 1006.7 hPa 0 mm - - -
1787873530 19.44° C 89% 1006.7 hPa 0 mm - - -
1787871732 19.44° C 89% 1007.3 hPa 0 mm - - -
1787869931 20° C 89% 1007.3 hPa 0 mm - - -
1787868132 20° C 87% 1007.5 hPa 0 mm - - -
1787866332 20.56° C 86% 1007.7 hPa 0 mm - - -
1787864531 20.56° C 85% 1007.7 hPa 0 mm - - -

* Rain since midnight (hover to see other rain measurements)
** Current wind speed in m/s (hover to see current wind gust speed)